Regional Weather Roundup
Issued by NWS

Home | Current Version | Previous Version | Graphics & Text | Print | Product List | Glossary On
Versions: 1 2 3 4 5 6 7 8 9 10 11 12 13 14 15 16 17 18 19 20 21 22 23 24 25 26 27 28 29 30 31 32 33 34 35 36 37 38 39 40 41 42 43 44 45 46 47 48 49 50
000
ASUS45 KBOU 260507
RWRCO

WEATHER ROUNDUP FOR COLORADO
NATIONAL WEATHER SERVICE DENVER/BOULDER CO
1100 PM MDT WED MAR 25 2015

NOTE: "FAIR" INDICATES FEW OR NO CLOUDS BELOW 12000 FEET WITH NO
SIGNIFICANT WEATHER AND/OR OBSTRUCTIONS TO VISIBILITY.

COZ001>005-013-030-031-260600-
...NORTHWEST COLORADO...

CITY           SKY/WX    TMP DP  RH WIND       PRES   REMARKS
CRAIG          FAIR      29  20  69 CALM      30.32R
HAYDEN         FAIR      28  21  74 E7        30.31R WCI  21
MEEKER         FAIR      31  22  69 CALM      30.33R
MOUNT WERNER   NOT AVBL
STEAMBOAT SPGS FAIR      27  25  91 CALM      30.31R
WALDEN         FAIR      25  19  80 S8        30.26F WCI  16
$$

COZ006>008-011-260600-
...WEST CENTRAL VALLEYS...

CITY           SKY/WX    TMP DP  RH WIND       PRES   REMARKS
GRAND JUNCTION FAIR      40  15  36 S7        30.29R
MONTROSE       FAIR      35  16  45 S8        30.34R WCI  29
EAGLE          CLEAR     28  19  69 VRB6      30.35R WCI  22
RIFLE          FAIR      31  18  58 CALM      30.33R
DELTA          FAIR      40  15  36 NE3       30.32R
NUCLA          FAIR      37  12  35 SW3       30.35R
$$

COZ017>023-064>068-260600-
...SOUTHWEST COLORADO...

CITY           SKY/WX    TMP DP  RH WIND       PRES   REMARKS
DURANGO        FAIR      35  11  36 CALM      30.21R
CORTEZ         FAIR      38  11  32 N7        30.27R
PAGOSA SPRINGS FAIR      34   9  36 N6        30.27R WCI  28
TELLURIDE      FAIR      29  13  49 CALM      30.34R
WOLF CREEK PAS FAIR      14   5  67 NE17      30.33R WCI  -3
$$

COZ009-010-012-014-032>034-037-058>063-260600-
...CENTRAL COLORADO...

CITY           SKY/WX    TMP DP  RH WIND       PRES   REMARKS
ASPEN          FAIR      27  19  72 S5        30.32R WCI  22
BUENA VISTA    FAIR      29  12  49 NW9       30.29R WCI  20
COPPER MTN     FAIR      18  10  73 W16       30.30R WCI   3
BERTHOUD PASS  LGT SNOW   9   1  72 MISG      30.24S VSB 1
COTTONWOOD PAS FAIR      27  14  59 N7        30.29R WCI  19
GUNNISON       FAIR      27  12  54 S5        30.33R WCI  21
KREMMLING      FAIR      28  21  74 CALM      30.32S
LEADVILLE      FAIR      13   6  74 NE6       30.30R WCI   4
SALIDA         FAIR      30  24  79 SW3       30.38R
SUNLIGHT       FAIR      23  10  58 CALM      30.38R
WILKERSON PASS MOCLDY    14   9  79 N10G18    30.30R WCI   1
$$

COZ069>075-260600-
...SAN LUIS VALLEY/SANGRE DE CRISTO MOUNTAINS...

CITY           SKY/WX    TMP DP  RH WIND       PRES   REMARKS
ALAMOSA        FAIR      23  15  71 SW5       30.28R WCI  17
LA VETA PASS   FAIR      19  14  79 MISG      30.28R
SAGUACHE       FAIR      32   9  37 NW13      30.28R WCI  22
$$

COZ035-036-038>040-260600-
...NORTHERN COLORADO FRONT RANGE...

CITY           SKY/WX    TMP DP  RH WIND       PRES   REMARKS
DENVER INTL AP MOCLDY    32  29  88 S12       30.26F WCI  23
DMNS CITY PARK   N/A     36  28  73 S3        30.26F
AURORA         NOT AVBL
FRONT RANGE AP NOT AVBL
ERIE MUNI ARPT FAIR      33  32  94 CALM      30.26F
BOULDER MUN AP FAIR      36  32  87 SW3       30.26F
CENTENNIAL     MOCLDY    34  27  75 SW7       30.26F WCI  28
BROOMFIELD     NOT AVBL
FORT COLLINS   FAIR      30  28  93 S8        30.26F WCI  23
LONGMONT       FAIR      32  30  91 CALM      30.28F
$$

COZ041-046-047-076>085-087-088-260600-
...PIKES PEAK/PALMER DIVIDE AND SOUTHERN FOOTHILLS...

CITY           SKY/WX    TMP DP  RH WIND       PRES   REMARKS
COLO. SPRINGS  FAIR      29  23  78 N6        30.29S WCI  23
A. F. ACADEMY  NOT AVBL
ELLICOTT       FAIR     N/A N/A N/A CALM      30.27S
FALCON         FAIR      26  21  80 W6        30.29S WCI  20
FORT CARSON    NOT AVBL
LIMON          MOCLDY    31  29  92 W7        30.28R WCI  24
MONUMENT HILL  CLOUDY    27  21  80 SW7       30.26F WCI  19
TRINIDAD       FAIR      30  26  85 W9        30.30R WCI  22
$$

COZ042>045-048>051-090-091-260600-
...NORTHEAST COLORADO...

CITY           SKY/WX    TMP DP  RH WIND       PRES   REMARKS
GREELEY ARPT   FAIR      34  27  75 NW5       30.25F WCI  30
AKRON          FAIR      31  29  92 W12       30.24F WCI  22
BURLINGTON     FAIR      28  24  85 W7        30.26R WCI  21
WRAY           CLOUDY    34  28  81 SW6       30.26R WCI  28
STERLING       FAIR      34  28  80 CALM      30.24S
HOLYOKE        FAIR      36  28  75 W3        30.25S
FORT MORGAN    FAIR      33  31  91 W6        30.26S WCI  28
$$

COZ086-089-092>099-260600-
...SOUTHEAST COLORADO...

CITY           SKY/WX    TMP DP  RH WIND       PRES   REMARKS
PUEBLO         FAIR      32  30  92 W3        30.29R
LA JUNTA       FAIR      35  32  88 W10       30.29R WCI  27
LAMAR          FAIR      28  27  96 SW5       30.27S WCI  23
SPRINGFIELD      N/A     31  31 100 NW10      30.27S WCI  22
$$


USA.gov is the U.S. government's official web portal to all federal, state and local government web resources and services.